Date String (YYYY-MM-DD hh:mm:ss) UTC,Instrument flags,Ambient pressure (hPa),Sample flow (lpm),Bypass flow (lpm),Sample temperature (°C),Ambient temperature (°C),ASC tube jacket temperature (°C),LED temperature (°C),Box temperature (°C),Sample RH (%),Span deviation,Mass concentration (μg/m³),Mass concentration (μg/m³),Mass concentration (μg/m³)
DateTimeUTC,F1_M11,P_M11,Q1_M11,Q2_M11,T1_M11,T2_M11,T3_M11,T4_M11,T5_M11,U1_M11,ZSPAN_M11,X0_M11,X2_M11,X1_M11
2021-10-03 17:00:00,,0832.1,5.02,0.00,29.9,28.6,00.0,39.0,31.7,18.5,0002.3,0009.07,0004.48,0004.08
2021-10-03 17:01:00,,0832.0,4.99,0.00,30.0,28.8,00.0,39.0,31.8,19.3,0000.5,0009.33,0004.53,0004.10
2021-10-03 17:02:00,,0832.1,5.00,0.00,30.0,28.9,00.0,39.0,31.8,18.5,0002.2,0008.72,0004.54,0004.11
2021-10-03 17:03:00,,0832.1,5.01,0.00,30.1,29.0,00.0,39.0,31.9,18.2,0003.4,0008.66,0004.49,0004.08
2021-10-03 17:04:00,,0832.1,4.99,0.00,30.1,29.1,00.0,39.0,31.9,18.4,0001.6,0008.85,0004.50,0004.07
2021-10-03 17:05:00,,0832.1,4.99,0.00,30.1,29.2,00.0,39.1,32.0,17.5,0000.0,0008.92,0004.49,0004.06
2021-10-03 17:06:00,,0832.1,4.99,0.00,30.2,29.3,00.0,39.1,32.0,18.2,0000.0,0009.09,0004.49,0004.04
2021-10-03 17:07:00,,0832.1,5.01,0.00,30.2,29.4,00.0,39.1,32.1,18.4,0000.0,0009.03,0004.47,0004.03
2021-10-03 17:08:00,,0832.1,4.99,0.00,30.2,28.9,00.0,39.1,31.9,17.9,0000.0,0009.14,0004.45,0004.02
2021-10-03 17:09:00,,0832.1,5.00,0.00,30.1,27.0,00.0,39.1,31.5,18.0,0000.0,0009.49,0004.51,0004.02
2021-10-03 17:10:00,,0832.0,5.00,0.00,29.9,26.3,00.0,39.1,31.2,17.8,0000.0,0008.83,0004.53,0004.03
2021-10-03 17:11:00,,0832.0,5.00,0.00,29.9,26.7,00.0,39.1,31.3,18.3,0000.0,0008.68,0004.50,0004.02
2021-10-03 17:12:00,,0832.0,5.00,0.00,29.8,27.1,00.0,39.0,31.3,18.5,0000.0,0008.91,0004.49,0004.00
2021-10-03 17:13:00,,0831.9,4.99,0.00,29.8,27.6,00.0,39.0,31.4,15.6,0000.0,0008.83,0004.49,0003.97
2021-10-03 17:14:00,,0832.0,5.01,0.00,29.8,27.9,00.0,38.9,31.5,15.7,0000.0,0008.79,0004.48,0003.94
2021-10-03 17:15:00,,0831.9,4.98,0.00,29.8,28.2,00.0,38.9,31.6,17.0,0000.0,0008.98,0004.45,0003.91
2021-10-03 17:16:00,,0831.9,5.01,0.00,29.9,28.4,00.0,38.9,31.6,17.0,0000.0,0009.30,0004.48,0003.91
2021-10-03 17:17:00,,0831.9,5.00,0.00,29.9,28.6,00.0,38.9,31.7,16.9,0000.0,0009.17,0004.45,0003.89
2021-10-03 17:18:00,,0832.0,4.99,0.00,29.9,28.8,00.0,39.0,31.8,16.3,0000.0,0009.18,0004.42,0003.86
2021-10-03 17:19:00,,0832.0,5.01,0.00,30.0,28.9,00.0,39.0,31.8,16.4,0000.0,0009.03,0004.40,0003.85
2021-10-03 17:20:00,,0832.0,5.00,0.00,30.0,29.0,00.0,39.0,31.9,14.5,0000.0,0008.76,0004.33,0003.81
2021-10-03 17:21:00,,0832.0,5.00,0.00,30.1,29.1,00.0,39.0,31.9,15.1,0000.0,0008.77,0004.32,0003.77
2021-10-03 17:22:00,,0831.9,5.00,0.00,30.1,29.2,00.0,39.0,32.0,14.3,0000.0,0008.85,0004.32,0003.73
2021-10-03 17:23:00,,0831.9,5.01,0.00,30.1,29.2,00.0,39.0,32.0,14.0,0000.0,0008.42,0004.24,0003.68
2021-10-03 17:24:00,,0831.8,5.00,0.00,30.1,27.8,00.0,39.1,31.6,14.2,0000.0,0008.29,0004.17,0003.65
2021-10-03 17:25:00,,0831.8,5.01,0.00,29.9,26.3,00.0,39.0,31.2,14.0,0000.0,0008.29,0004.15,0003.64
2021-10-03 17:26:00,,0831.7,4.99,0.00,29.8,26.4,00.0,39.0,31.2,13.6,0000.0,0008.76,0004.13,0003.62
2021-10-03 17:27:00,,0831.7,5.00,0.00,29.8,26.9,00.0,39.0,31.3,12.5,0000.0,0008.96,0004.08,0003.58
2021-10-03 17:28:00,,0831.7,5.00,0.00,29.7,27.3,00.0,38.9,31.4,10.8,0000.0,0009.51,0004.03,0003.54
2021-10-03 17:29:00,,0831.7,5.00,0.00,29.7,27.7,00.0,38.9,31.4,11.1,0000.0,0009.52,0003.98,0003.49
2021-10-03 17:30:00,,0831.7,4.99,0.00,29.8,28.0,00.0,38.9,31.5,12.6,0000.0,0009.50,0003.97,0003.46
2021-10-03 17:31:00,,0831.7,5.00,0.00,29.8,28.3,00.0,38.9,31.6,12.7,0000.0,0009.40,0003.95,0003.44
2021-10-03 17:32:00,,0831.7,5.01,0.00,29.8,28.5,00.0,38.9,31.6,11.9,0000.0,0009.28,0003.90,0003.42
2021-10-03 17:33:00,,0831.7,5.00,0.00,29.9,28.7,00.0,38.9,31.7,10.5,0001.5,0009.32,0003.81,0003.40
2021-10-03 17:34:00,,0831.7,4.98,0.00,29.9,28.8,00.0,38.9,31.7,10.5,0002.2,0009.70,0003.76,0003.38
2021-10-03 17:35:00,,0831.7,5.02,0.00,29.9,28.9,00.0,38.9,31.8,10.0,0001.9,0010.19,0003.73,0003.35
2021-10-03 17:36:00,,0831.7,4.99,0.00,30.0,29.0,00.0,38.9,31.9,10.9,0000.5,0010.25,0003.71,0003.33
2021-10-03 17:37:00,,0831.7,5.01,0.00,30.0,29.1,00.0,38.9,31.9,11.4,0000.0,0009.46,0003.72,0003.32
2021-10-03 17:38:00,,0831.7,4.99,0.00,30.1,29.2,00.0,39.0,31.9,10.0,0000.0,0008.86,0003.66,0003.31
2021-10-03 17:39:00,,0831.7,5.01,0.00,30.1,28.6,00.0,39.0,31.8,10.0,0000.0,0008.06,0003.63,0003.30
2021-10-03 17:40:00,,0831.7,5.00,0.00,30.0,26.7,00.0,39.0,31.3,09.8,0000.0,0007.88,0003.63,0003.29
2021-10-03 17:41:00,,0831.7,5.00,0.00,29.8,26.2,00.0,38.9,31.1,09.3,0000.0,0007.78,0003.58,0003.28
2021-10-03 17:42:00,,0831.7,5.00,0.00,29.7,26.6,00.0,38.9,31.2,09.5,0000.0,0007.79,0003.55,0003.26
2021-10-03 17:43:00,,0831.7,4.98,0.00,29.7,27.0,00.0,38.8,31.2,09.8,0000.0,0007.74,0003.53,0003.24
2021-10-03 17:44:00,,0831.7,5.01,0.00,29.7,27.4,00.0,38.8,31.3,09.5,0000.0,0007.51,0003.52,0003.23
2021-10-03 17:45:00,,0831.7,5.00,0.00,29.7,27.8,00.0,38.8,31.4,09.9,0000.0,0006.88,0003.52,0003.23
2021-10-03 17:46:00,,0831.6,5.00,0.00,29.7,28.1,00.0,38.8,31.5,09.3,0000.0,0005.80,0003.51,0003.22
2021-10-03 17:47:00,,0831.6,5.00,0.00,29.8,28.3,00.0,38.8,31.5,09.9,0000.0,0005.45,0003.49,0003.21
2021-10-03 17:48:00,,0831.7,5.01,0.00,29.8,28.5,00.0,38.8,31.6,09.7,0000.0,0005.34,0003.46,0003.19
2021-10-03 17:49:00,,0831.6,5.00,0.00,29.8,28.7,00.0,38.8,31.7,09.8,0000.0,0005.91,0003.49,0003.19
2021-10-03 17:50:00,,0831.6,5.01,0.00,29.9,28.9,00.0,38.8,31.7,10.5,0000.0,0006.89,0003.49,0003.18
2021-10-03 17:51:00,,0831.6,4.99,0.00,29.9,29.0,00.0,38.8,31.7,10.4,0000.0,0006.90,0003.48,0003.18
2021-10-03 17:52:00,,0831.6,5.01,0.00,30.0,29.1,00.0,38.9,31.8,10.4,0000.0,0006.85,0003.48,0003.19
2021-10-03 17:53:00,,0831.6,5.00,0.00,30.0,29.2,00.0,38.9,31.9,10.0,0000.0,0006.76,0003.48,0003.19
2021-10-03 17:54:00,,0831.6,5.01,0.00,30.0,29.1,00.0,38.9,31.9,10.2,0000.0,0006.99,0003.48,0003.19
2021-10-03 17:55:00,,0831.6,5.00,0.00,30.0,27.6,00.0,38.9,31.5,10.3,0000.0,0006.96,0003.47,0003.18
2021-10-03 17:56:00,,0831.5,5.01,0.00,29.8,26.1,00.0,38.9,31.0,10.4,0000.0,0006.80,0003.47,0003.17
2021-10-03 17:57:00,,0831.5,4.99,0.00,29.7,26.3,00.0,38.9,31.1,10.0,0000.0,0007.58,0003.48,0003.18
2021-10-03 17:58:00,,0831.5,5.00,0.00,29.7,26.8,00.0,38.8,31.1,10.0,0000.0,0008.09,0003.50,0003.18
2021-10-03 17:59:00,,0831.5,5.01,0.00,29.6,27.2,00.0,38.8,31.2,10.2,0000.0,0008.11,0003.50,0003.18
